sat.trackr.live / text

‹ back to catalog

STARLINK-36874

NORAD 67981 · 2026-038W

PAYLOAD ACTIVE UNKNOWN

§ Identity

Operator
Country
US
Launch date
2026-02-25
Launch site
AFWTR
Launch vehicle
Mass (kg)
RCS (m²)

Purposes: comms

External: N2YO · Heavens-Above · Gunter

§ Orbital elements

Epoch: 2026-05-25T00:53:56.473152Z

Period
93.91 min
Inclination
97.2839°
Eccentricity
0.0001132
Mean motion
15.33444920 rev/d
Perigee alt
464.8 km
Apogee alt
466.3 km
Semi-major
6,843.7 km
B*
6.0465e-4
RAAN
155.1273°
Arg perigee
103.0848°
Mean anomaly
257.0521°
Rev number
1,494

§ Raw data

STARLINK-368741 67981U 26038W   26145.03745918  .00019496  00000+0  60465-3 0  99972 67981  97.2839 155.1273 0001132 103.0848 257.0521 15.33444920 14941

JSON: /api/v1/satellites/67981 · /tle

For live sub-satellite position, see the globe view (requires WebGL).

§ Visibility from observer

Set your observer location to see the next 7 days of passes ≥ 10°. The values pass through the URL so the page stays shareable.

No JS? Fill the form by hand. The geolocation button needs JavaScript.